TimeMDT,TemperatureF,Dew PointF,Humidity,Sea Level PressureIn,VisibilityMPH,Wind Direction,Wind SpeedMPH,Gust SpeedMPH,PrecipitationIn,Events,Conditions,WindDirDegrees,DateUTC
12:55 AM,54.0,17.1,23,29.83,10.0,Calm,Calm,-,N/A,,Scattered Clouds,0,2012-10-13 06:55:00
1:55 AM,50.0,18.0,28,29.83,10.0,South,3.5,-,N/A,,Mostly Cloudy,180,2012-10-13 07:55:00
2:55 AM,48.0,17.1,29,29.83,9.0,Calm,Calm,-,N/A,,Clear,0,2012-10-13 08:55:00
3:55 AM,46.0,19.0,34,29.84,9.0,Calm,Calm,-,N/A,,Partly Cloudy,0,2012-10-13 09:55:00
4:55 AM,46.0,24.1,42,29.85,10.0,Calm,Calm,-,N/A,,Overcast,0,2012-10-13 10:55:00
5:55 AM,46.9,23.0,39,29.87,10.0,Calm,Calm,-,N/A,,Mostly Cloudy,0,2012-10-13 11:55:00
6:55 AM,48.9,23.0,36,29.93,9.0,NNW,3.5,-,N/A,,Overcast,340,2012-10-13 12:55:00
7:55 AM,51.1,32.0,48,29.95,4.0,NW,13.8,-,0.00,,Haze,310,2012-10-13 13:55:00
8:55 AM,52.0,34.0,50,29.99,10.0,NNE,9.2,17.3,N/A,,Overcast,20,2012-10-13 14:55:00
9:55 AM,52.0,34.0,50,30.03,9.0,Calm,Calm,-,N/A,,Clear,0,2012-10-13 15:55:00
10:55 AM,57.0,35.1,44,30.03,10.0,Calm,Calm,-,N/A,,Partly Cloudy,0,2012-10-13 16:55:00
12:55 PM,60.1,33.1,36,30.05,10.0,North,9.2,-,N/A,,Partly Cloudy,350,2012-10-13 18:55:00
1:55 PM,62.1,33.1,34,30.06,10.0,NW,17.3,-,N/A,,Clear,310,2012-10-13 19:55:00
2:55 PM,62.1,32.0,32,30.06,10.0,NW,15.0,19.6,N/A,,Clear,320,2012-10-13 20:55:00
3:55 PM,62.1,28.0,28,30.09,10.0,NNW,11.5,-,N/A,,Scattered Clouds,330,2012-10-13 21:55:00
4:55 PM,62.1,26.1,25,30.09,10.0,NW,12.7,-,N/A,,Mostly Cloudy,320,2012-10-13 22:55:00
5:55 PM,61.0,25.0,25,30.10,10.0,WNW,13.8,-,N/A,,Mostly Cloudy,290,2012-10-13 23:55:00
8:55 PM,48.9,28.9,46,30.18,10.0,Calm,Calm,-,N/A,,Scattered Clouds,0,2012-10-14 02:55:00
9:55 PM,46.0,27.0,47,30.19,10.0,Calm,Calm,-,N/A,,Clear,0,2012-10-14 03:55:00
11:55 PM,41.0,28.0,60,30.24,10.0,Calm,Calm,-,N/A,,Clear,0,2012-10-14 05:55:00